Weather History for Las Cruces, NM

Change the Weather History Date:

Wednesday, November 21, 2012

  Actual Average Record
Temperature  
Mean Temperature 60 °F -  
Max Temperature 72 °F 58 °F 75 °F (2007)
Min Temperature 48 °F 36 °F 28 °F (2000)
Degree Days  
Heating Degree Days 5    
Growing Degree Days 10 (Base 50)    
Moisture  
Dew Point 35 °F    
Average Humidity 43    
Maximum Humidity 72    
Minimum Humidity 29    
Precipitation  
Precipitation 0.00 in - - ()
Sea Level Pressure  
Sea Level Pressure 30.18 in    
Wind  
Wind Speed 2 mph (SSE)    
Max Wind Speed 10 mph    
Max Gust Speed 18 mph    
Visibility 10 miles    
Events Thunderstorm    
Averages and records for this station are not official NWS values.
T = Trace of Precipitation, MM = Missing Value Source: NWS Daily Summary

Daily Weather History Graph

Daily Weather History Graph

Search for Another Location

Airport:

Trip Planner

Search our weather history database for the weather conditions in past years. The results will help you decide how hot, cold, wet, or windy it might be!

Date:

Astronomy

Nov. 21, 2012 Rise Set
Actual Time 6:42 AM MST 5:04 PM MST
Civil Twilight 6:16 AM MST 5:30 PM MST
Nautical Twilight 5:46 AM MST 6:00 PM MST
Astronomical Twilight 5:17 AM MST 6:29 PM MST
Moon 1:03 PM MST 12:25 AM MST
Length of Visible Light 11h 14m
Length of Day
10h 21m
Waxing Gibbous, 62% of the Moon is Illuminated
Nov 21
Waxing Gibbous
Nov 28
Full
Dec 6
Last Quarter
Dec 13
New
Dec 19
First Quarter

Hourly Weather History & Observations

Time (MST) Temp. Dew Point Humidity Pressure Visibility Wind Dir Wind Speed Gust Speed Precip Events Conditions
12:15 AM 52.7 °F 28.4 °F 39% 30.21 in 10.0 mi Calm Calm - N/A   Clear
12:35 AM 52.7 °F 28.8 °F 40% 30.21 in 10.0 mi Calm Calm - N/A   Clear
12:55 AM 52.7 °F 28.8 °F 40% 30.21 in 10.0 mi Calm Calm - N/A   Clear
1:15 AM 52.7 °F 29.1 °F 40% 30.21 in 10.0 mi Calm Calm - N/A   Clear
1:35 AM 52.7 °F 28.4 °F 39% 30.21 in 10.0 mi Calm Calm - N/A   Clear
1:55 AM 52.3 °F 28.4 °F 40% 30.21 in 10.0 mi NW 3.5 mph - N/A   Scattered Clouds
2:15 AM 52.7 °F 28.9 °F 40% 30.20 in 10.0 mi Calm Calm - N/A   Scattered Clouds
2:35 AM 53.2 °F 29.1 °F 40% 30.20 in 10.0 mi Calm Calm - N/A   Clear
2:55 AM 53.1 °F 29.1 °F 40% 30.20 in 10.0 mi Calm Calm - N/A   Clear
3:15 AM 54.5 °F 29.1 °F 38% 30.19 in 10.0 mi Calm Calm - N/A   Clear
3:35 AM 52.3 °F 28.4 °F 40% 30.19 in 10.0 mi WNW 3.5 mph - N/A   Scattered Clouds
3:55 AM 51.8 °F 28.4 °F 41% 30.19 in 10.0 mi NNW 4.6 mph - N/A   Scattered Clouds
4:15 AM 51.8 °F 28.4 °F 41% 30.19 in 10.0 mi NW 4.6 mph - N/A   Clear
4:35 AM 51.8 °F 28.2 °F 40% 30.19 in 10.0 mi NW 3.5 mph - N/A   Clear
4:55 AM 51.3 °F 27.5 °F 40% 30.19 in 10.0 mi NW 4.6 mph - N/A   Scattered Clouds
5:15 AM 50.9 °F 28.0 °F 41% 30.19 in 10.0 mi NNW 3.5 mph - N/A   Clear
5:35 AM 50.9 °F 27.1 °F 40% 30.19 in 10.0 mi Calm Calm - N/A   Clear
5:55 AM 49.6 °F 27.5 °F 42% 30.19 in 10.0 mi Calm Calm - N/A   Clear
6:15 AM 49.3 °F 26.6 °F 41% 30.20 in 10.0 mi Calm Calm - N/A   Clear
6:35 AM 48.4 °F 26.6 °F 43% 30.20 in 10.0 mi Calm Calm - N/A   Clear
6:55 AM 48.2 °F 27.0 °F 44% 30.21 in 10.0 mi Calm Calm - N/A   Scattered Clouds
7:15 AM 49.5 °F 27.1 °F 42% 30.21 in 10.0 mi Calm Calm - N/A   Mostly Cloudy
7:35 AM 50.9 °F 28.2 °F 42% 30.21 in 10.0 mi NW 3.5 mph - N/A   Overcast
7:55 AM 52.5 °F 28.0 °F 39% 30.23 in 10.0 mi WNW 4.6 mph - N/A   Mostly Cloudy
8:15 AM 54.7 °F 26.6 °F 34% 30.24 in 10.0 mi Calm Calm - N/A   Scattered Clouds
8:35 AM 57.4 °F 28.0 °F 33% 30.24 in 10.0 mi Calm Calm - N/A   Scattered Clouds
8:55 AM 58.3 °F 29.8 °F 34% 30.25 in 10.0 mi East 3.5 mph - N/A   Scattered Clouds
9:15 AM 57.9 °F 29.3 °F 34% 30.25 in 10.0 mi Calm Calm - N/A   Overcast
9:35 AM 59.4 °F 29.8 °F 33% 30.25 in 10.0 mi Calm Calm - N/A   Scattered Clouds
10:15 AM 61.0 °F 31.6 °F 33% 30.25 in 10.0 mi East 3.5 mph - N/A   Clear
10:35 AM 62.2 °F 32.0 °F 32% 30.25 in 10.0 mi SE 6.9 mph - N/A   Scattered Clouds
10:55 AM 63.1 °F 32.7 °F 32% 30.24 in 10.0 mi SSE 4.6 mph - N/A   Scattered Clouds
11:15 AM 63.7 °F 33.8 °F 33% 30.23 in 10.0 mi South 3.5 mph - N/A   Mostly Cloudy
11:35 AM 65.5 °F 33.6 °F 31% 30.21 in 10.0 mi Calm Calm - N/A   Mostly Cloudy
11:55 AM 66.9 °F 37.4 °F 34% 30.20 in 10.0 mi Calm Calm - N/A   Mostly Cloudy
12:15 PM 68.9 °F 37.6 °F 32% 30.19 in 10.0 mi SE 4.6 mph - N/A   Mostly Cloudy
12:35 PM 70.5 °F 38.1 °F 31% 30.17 in 10.0 mi South 4.6 mph - N/A   Scattered Clouds
12:55 PM 70.3 °F 38.3 °F 31% 30.16 in 10.0 mi Calm Calm - N/A Thunderstorm Clear
1:15 PM 72.7 °F 38.5 °F 29% 30.15 in 10.0 mi South 6.9 mph - N/A   Scattered Clouds
1:35 PM 70.5 °F 38.3 °F 31% 30.14 in 10.0 mi Calm Calm - N/A   Scattered Clouds
1:55 PM 69.8 °F 38.3 °F 32% 30.13 in 10.0 mi Calm Calm - N/A   Scattered Clouds
2:15 PM 70.0 °F 38.1 °F 31% 30.13 in 10.0 mi Calm Calm - N/A   Mostly Cloudy
2:55 PM 70.7 °F 37.6 °F 30% 30.13 in 10.0 mi SSE 6.9 mph - N/A   Overcast
3:15 PM 70.7 °F 37.6 °F 30% 30.12 in 10.0 mi SE 5.8 mph - N/A   Mostly Cloudy
3:35 PM 72.1 °F 38.3 °F 29% 30.12 in 10.0 mi ESE 10.4 mph 18.4 mph N/A   Scattered Clouds
3:55 PM 69.8 °F 38.3 °F 32% 30.12 in 10.0 mi ESE 6.9 mph - N/A   Scattered Clouds
4:15 PM 68.2 °F 38.3 °F 33% 30.12 in 10.0 mi ESE 8.1 mph - N/A   Clear
4:35 PM 68.0 °F 38.3 °F 34% 30.12 in 10.0 mi SE 5.8 mph - N/A   Clear
4:55 PM 66.4 °F 38.3 °F 36% 30.12 in 10.0 mi SE 3.5 mph - N/A   Clear
5:15 PM 64.4 °F 38.8 °F 39% 30.12 in 10.0 mi ESE 3.5 mph - N/A   Clear
5:35 PM 63.7 °F 39.0 °F 40% 30.12 in 10.0 mi Calm Calm - N/A   Scattered Clouds
5:55 PM 63.7 °F 40.5 °F 43% 30.13 in 10.0 mi SE 5.8 mph - N/A   Scattered Clouds
6:15 PM 61.9 °F 41.2 °F 47% 30.13 in 10.0 mi SE 4.6 mph - N/A   Clear
6:35 PM 61.5 °F 44.8 °F 54% 30.14 in 10.0 mi SSE 4.6 mph - N/A   Clear
6:55 PM 59.9 °F 45.1 °F 58% 30.14 in 10.0 mi ESE 4.6 mph - N/A   Clear
7:15 PM 60.3 °F 45.5 °F 58% 30.14 in 10.0 mi ESE 5.8 mph - N/A   Clear
7:35 PM 59.0 °F 45.1 °F 60% 30.15 in 10.0 mi SE 4.6 mph - N/A   Clear
7:55 PM 58.6 °F 44.8 °F 60% 30.15 in 10.0 mi SE 4.6 mph - N/A   Clear
8:15 PM 58.5 °F 44.6 °F 60% 30.15 in 10.0 mi SSE 5.8 mph - N/A   Clear
8:35 PM 58.3 °F 44.6 °F 60% 30.16 in 10.0 mi South 6.9 mph - N/A   Clear
8:55 PM 57.9 °F 44.4 °F 61% 30.15 in 10.0 mi South 9.2 mph - N/A   Clear
9:15 PM 58.3 °F 44.6 °F 60% 30.15 in 10.0 mi South 8.1 mph - N/A   Scattered Clouds
9:35 PM 57.4 °F 44.4 °F 62% 30.15 in 10.0 mi SSE 5.8 mph - N/A   Scattered Clouds
9:55 PM 55.6 °F 43.9 °F 65% 30.15 in 10.0 mi SSE 3.5 mph - N/A   Clear
10:15 PM 54.3 °F 43.7 °F 67% 30.15 in 10.0 mi SSE 3.5 mph - N/A   Clear
10:35 PM 52.3 °F 43.0 °F 70% 30.15 in 10.0 mi South 3.5 mph - N/A   Clear
10:55 PM 50.5 °F 41.9 °F 72% 30.15 in 10.0 mi Calm Calm - N/A   Clear
11:15 PM 51.3 °F 42.6 °F 72% 30.15 in 10.0 mi South 3.5 mph - N/A   Clear
11:35 PM 52.9 °F 43.9 °F 71% 30.14 in 10.0 mi SSW 5.8 mph - N/A   Clear